Time,TemperatureF,DewpointF,PressureIn,WindDirection,WindDirectionDegrees,WindSpeedMPH,WindSpeedGustMPH,Humidity,HourlyPrecipIn,Conditions,Clouds,dailyrainin,SoftwareType,DateUTC
2013-03-11 00:02:00,50.5,47.1,30.31,West,281,0.0,3.0,88,0.00,,,0.00,meteohub,2013-03-11 07:02:00,
2013-03-11 00:07:00,50.5,47.1,30.31,West,280,1.0,3.0,88,0.00,,,0.00,meteohub,2013-03-11 07:07:00,
2013-03-11 00:12:00,50.5,47.1,30.31,West,281,0.0,3.0,88,0.00,,,0.00,meteohub,2013-03-11 07:12:00,
2013-03-11 00:17:00,50.5,47.1,30.31,West,281,1.0,3.0,88,0.00,,,0.00,meteohub,2013-03-11 07:17:00,
2013-03-11 00:22:00,50.5,47.1,30.31,West,281,0.0,4.0,88,0.00,,,0.00,meteohub,2013-03-11 07:22:00,
2013-03-11 00:27:00,50.4,46.9,30.30,West,281,0.0,5.0,88,0.00,,,0.00,meteohub,2013-03-11 07:27:00,
2013-03-11 00:37:00,50.0,46.9,30.30,West,281,1.0,5.0,89,0.00,,,0.00,meteohub,2013-03-11 07:37:00,
2013-03-11 00:42:00,50.0,46.9,30.30,West,280,2.0,5.0,89,0.00,,,0.00,meteohub,2013-03-11 07:42:00,
2013-03-11 00:47:00,50.0,46.9,30.30,West,281,0.0,5.0,89,0.00,,,0.00,meteohub,2013-03-11 07:47:00,
2013-03-11 00:52:00,50.0,47.1,30.30,West,281,0.0,5.0,90,0.00,,,0.00,meteohub,2013-03-11 07:52:00,
2013-03-11 01:02:00,50.2,47.1,30.30,West,281,0.0,1.0,89,0.00,,,0.00,meteohub,2013-03-11 08:02:00,
2013-03-11 01:07:00,50.2,47.1,30.30,West,281,0.0,3.0,89,0.00,,,0.00,meteohub,2013-03-11 08:07:00,
2013-03-11 01:12:00,50.2,47.1,30.30,West,281,0.0,3.0,89,0.00,,,0.00,meteohub,2013-03-11 08:12:00,
2013-03-11 01:17:00,50.2,47.1,30.30,West,281,0.0,3.0,89,0.00,,,0.00,meteohub,2013-03-11 08:17:00,
2013-03-11 01:22:00,50.2,47.1,30.30,West,281,0.0,3.0,89,0.00,,,0.00,meteohub,2013-03-11 08:22:00,
2013-03-11 01:27:00,50.2,47.1,30.30,West,281,0.0,2.0,89,0.00,,,0.00,meteohub,2013-03-11 08:27:00,
2013-03-11 01:37:00,50.2,47.1,30.30,West,281,0.0,3.0,89,0.00,,,0.00,meteohub,2013-03-11 08:37:00,
2013-03-11 01:42:00,49.8,46.8,30.30,West,280,0.0,3.0,89,0.00,,,0.00,meteohub,2013-03-11 08:42:00,
2013-03-11 01:47:00,49.8,46.8,30.30,West,281,0.0,3.0,89,0.00,,,0.00,meteohub,2013-03-11 08:47:00,
2013-03-11 01:52:00,49.8,46.8,30.30,West,280,0.0,3.0,89,0.00,,,0.00,meteohub,2013-03-11 08:52:00,
2013-03-11 01:57:00,49.8,46.8,30.30,West,281,0.0,1.0,89,0.00,,,0.00,meteohub,2013-03-11 08:57:00,
2013-03-11 02:02:00,49.8,46.8,30.30,West,281,0.0,1.0,89,0.00,,,0.00,meteohub,2013-03-11 09:02:00,
2013-03-11 02:07:00,49.8,46.8,30.30,West,281,0.0,1.0,89,0.00,,,0.00,meteohub,2013-03-11 09:07:00,
2013-03-11 02:12:00,49.8,46.8,30.30,West,281,0.0,1.0,89,0.00,,,0.00,meteohub,2013-03-11 09:12:00,
2013-03-11 02:17:00,49.8,46.8,30.30,West,281,0.0,1.0,89,0.00,,,0.00,meteohub,2013-03-11 09:17:00,
2013-03-11 02:27:00,49.8,46.8,30.30,West,281,0.0,1.0,89,0.00,,,0.00,meteohub,2013-03-11 09:27:00,
2013-03-11 02:32:00,49.6,46.6,30.30,West,281,0.0,3.0,89,0.00,,,0.00,meteohub,2013-03-11 09:32:00,
2013-03-11 02:37:00,49.8,46.9,30.30,West,281,0.0,3.0,90,0.00,,,0.00,meteohub,2013-03-11 09:37:00,
2013-03-11 02:47:00,49.6,46.6,30.30,West,281,0.0,2.0,89,0.00,,,0.00,meteohub,2013-03-11 09:47:00,
2013-03-11 02:52:00,49.6,46.8,30.30,West,281,0.0,2.0,90,0.00,,,0.00,meteohub,2013-03-11 09:52:00,
2013-03-11 03:02:00,49.6,46.8,30.30,West,281,0.0,2.0,90,0.00,,,0.00,meteohub,2013-03-11 10:02:00,
2013-03-11 03:07:00,49.6,46.8,30.30,West,281,0.0,2.0,90,0.00,,,0.00,meteohub,2013-03-11 10:07:00,
2013-03-11 03:12:00,49.6,46.8,30.30,West,281,0.0,2.0,90,0.00,,,0.00,meteohub,2013-03-11 10:12:00,
2013-03-11 03:17:00,49.6,46.8,30.30,West,281,0.0,2.0,90,0.00,,,0.00,meteohub,2013-03-11 10:17:00,
2013-03-11 03:22:00,49.8,46.9,30.29,West,281,0.0,2.0,90,0.00,,,0.00,meteohub,2013-03-11 10:22:00,
2013-03-11 03:27:00,49.8,46.8,30.30,West,281,0.0,2.0,89,0.00,,,0.00,meteohub,2013-03-11 10:27:00,
2013-03-11 03:32:00,49.8,46.8,30.29,West,281,0.0,2.0,89,0.00,,,0.00,meteohub,2013-03-11 10:32:00,
2013-03-11 03:37:00,50.2,47.1,30.29,West,281,0.0,2.0,89,0.00,,,0.00,meteohub,2013-03-11 10:37:00,
2013-03-11 03:42:00,50.2,47.1,30.29,West,281,0.0,1.0,89,0.00,,,0.00,meteohub,2013-03-11 10:42:00,
2013-03-11 03:47:00,50.2,47.1,30.28,West,281,2.0,2.0,89,0.00,,,0.00,meteohub,2013-03-11 10:47:00,
2013-03-11 03:57:00,50.0,46.6,30.29,West,281,0.0,2.0,88,0.00,,,0.00,meteohub,2013-03-11 10:57:00,
2013-03-11 04:02:00,49.8,46.4,30.29,West,281,0.0,2.0,88,0.00,,,0.00,meteohub,2013-03-11 11:02:00,
2013-03-11 04:07:00,50.0,46.6,30.28,West,281,0.0,1.0,88,0.00,,,0.00,meteohub,2013-03-11 11:07:00,
2013-03-11 04:12:00,50.2,46.8,30.28,West,281,0.0,1.0,88,0.00,,,0.00,meteohub,2013-03-11 11:12:00,
2013-03-11 04:17:00,50.0,46.6,30.28,West,281,0.0,1.0,88,0.00,,,0.00,meteohub,2013-03-11 11:17:00,
2013-03-11 04:22:00,50.2,46.4,30.28,West,281,0.0,1.0,87,0.00,,,0.00,meteohub,2013-03-11 11:22:00,
2013-03-11 04:27:00,50.0,46.2,30.28,West,281,0.0,1.0,87,0.00,,,0.00,meteohub,2013-03-11 11:27:00,
2013-03-11 04:37:00,50.2,46.4,30.28,West,281,0.0,1.0,87,0.00,,,0.00,meteohub,2013-03-11 11:37:00,
2013-03-11 04:42:00,50.2,46.4,30.28,West,281,0.0,0.0,87,0.00,,,0.00,meteohub,2013-03-11 11:42:00,
2013-03-11 04:52:00,50.0,46.2,30.28,West,281,0.0,0.0,87,0.00,,,0.00,meteohub,2013-03-11 11:52:00,
2013-03-11 04:57:00,49.8,46.0,30.28,West,280,0.0,0.0,87,0.00,,,0.00,meteohub,2013-03-11 11:57:00,
2013-03-11 05:02:00,49.8,46.0,30.28,West,281,0.0,0.0,87,0.00,,,0.00,meteohub,2013-03-11 12:02:00,
2013-03-11 05:07:00,49.8,46.0,30.28,West,281,0.0,0.0,87,0.00,,,0.00,meteohub,2013-03-11 12:07:00,
2013-03-11 05:12:00,49.8,46.0,30.28,West,281,0.0,0.0,87,0.00,,,0.00,meteohub,2013-03-11 12:12:00,
2013-03-11 05:17:00,50.2,46.2,30.28,West,281,0.0,0.0,86,0.00,,,0.00,meteohub,2013-03-11 12:17:00,
2013-03-11 05:22:00,50.2,46.2,30.28,West,281,0.0,0.0,86,0.00,,,0.00,meteohub,2013-03-11 12:22:00,
2013-03-11 05:27:00,50.2,46.2,30.28,West,281,0.0,0.0,86,0.00,,,0.00,meteohub,2013-03-11 12:27:00,
2013-03-11 05:32:00,50.2,46.2,30.28,West,281,0.0,1.0,86,0.00,,,0.00,meteohub,2013-03-11 12:32:00,
2013-03-11 05:37:00,50.4,46.4,30.28,West,281,0.0,1.0,86,0.00,,,0.00,meteohub,2013-03-11 12:37:00,
2013-03-11 05:42:00,50.5,46.6,30.28,West,281,0.0,1.0,86,0.00,,,0.00,meteohub,2013-03-11 12:42:00,
2013-03-11 05:47:00,50.5,46.2,30.28,West,281,0.0,0.0,85,0.00,,,0.00,meteohub,2013-03-11 12:47:00,
2013-03-11 05:52:00,50.4,46.0,30.28,West,281,0.0,0.0,85,0.00,,,0.00,meteohub,2013-03-11 12:52:00,
2013-03-11 05:57:00,50.4,46.0,30.28,West,280,0.0,0.0,85,0.00,,,0.00,meteohub,2013-03-11 12:57:00,
2013-03-11 06:07:00,50.2,45.9,30.28,West,281,0.0,0.0,85,0.00,,,0.00,meteohub,2013-03-11 13:07:00,
2013-03-11 06:12:00,50.2,46.2,30.28,West,281,0.0,0.0,86,0.00,,,0.00,meteohub,2013-03-11 13:12:00,
2013-03-11 06:17:00,50.2,46.4,30.28,West,281,0.0,0.0,87,0.00,,,0.00,meteohub,2013-03-11 13:17:00,
2013-03-11 06:22:00,50.2,46.8,30.28,West,280,1.0,0.0,88,0.00,,,0.00,meteohub,2013-03-11 13:22:00,
2013-03-11 06:32:00,50.2,46.8,30.28,West,281,0.0,2.0,88,0.00,,,0.00,meteohub,2013-03-11 13:32:00,
2013-03-11 06:37:00,50.2,46.8,30.28,West,281,0.0,2.0,88,0.00,,,0.00,meteohub,2013-03-11 13:37:00,
2013-03-11 06:42:00,50.0,46.9,30.28,West,281,0.0,1.0,89,0.00,,,0.00,meteohub,2013-03-11 13:42:00,
2013-03-11 06:47:00,49.8,46.8,30.28,West,281,0.0,1.0,89,0.00,,,0.00,meteohub,2013-03-11 13:47:00,
2013-03-11 06:52:00,50.0,46.9,30.28,West,281,0.0,0.0,89,0.00,,,0.00,meteohub,2013-03-11 13:52:00,
2013-03-11 06:57:00,49.8,46.9,30.28,West,281,1.0,0.0,90,0.00,,,0.00,meteohub,2013-03-11 13:57:00,
2013-03-11 07:07:00,50.0,47.1,30.28,West,281,0.0,1.0,90,0.00,,,0.00,meteohub,2013-03-11 14:07:00,
2013-03-11 07:17:00,50.0,47.5,30.28,WNW,282,3.0,3.0,91,0.00,,,0.00,meteohub,2013-03-11 14:17:00,
2013-03-11 07:22:00,50.0,47.5,30.28,WNW,282,0.0,3.0,91,0.00,,,0.00,meteohub,2013-03-11 14:22:00,
2013-03-11 07:27:00,49.8,47.3,30.29,WNW,282,1.0,3.0,91,0.00,,,0.00,meteohub,2013-03-11 14:27:00,
2013-03-11 07:37:00,49.8,47.3,30.29,WNW,282,1.0,3.0,91,0.00,,,0.00,meteohub,2013-03-11 14:37:00,
2013-03-11 07:42:00,49.8,47.3,30.28,WNW,282,1.0,4.0,91,0.00,,,0.00,meteohub,2013-03-11 14:42:00,
2013-03-11 07:47:00,49.8,47.3,30.28,WNW,282,0.0,4.0,91,0.00,,,0.00,meteohub,2013-03-11 14:47:00,
2013-03-11 07:52:00,50.0,47.5,30.28,WNW,282,0.0,4.0,91,0.00,,,0.00,meteohub,2013-03-11 14:52:00,
2013-03-11 07:57:00,50.4,47.8,30.28,WNW,282,0.0,3.0,91,0.00,,,0.00,meteohub,2013-03-11 14:57:00,
2013-03-11 08:07:00,50.7,47.8,30.28,WNW,282,0.0,2.0,90,0.00,,,0.00,meteohub,2013-03-11 15:07:00,
2013-03-11 08:12:00,51.1,48.2,30.29,WNW,282,0.0,1.0,90,0.00,,,0.00,meteohub,2013-03-11 15:12:00,
2013-03-11 08:22:00,51.6,48.6,30.28,WNW,286,2.0,3.0,89,0.00,,,0.00,meteohub,2013-03-11 15:22:00,
2013-03-11 08:27:00,52.0,48.6,30.28,WNW,286,2.0,4.0,88,0.00,,,0.00,meteohub,2013-03-11 15:27:00,
2013-03-11 08:32:00,52.3,48.9,30.28,WNW,286,0.0,4.0,88,0.00,,,0.00,meteohub,2013-03-11 15:32:00,
2013-03-11 08:37:00,52.7,48.6,30.28,WNW,286,0.0,4.0,86,0.00,,,0.00,meteohub,2013-03-11 15:37:00,
2013-03-11 08:42:00,53.1,48.9,30.28,WNW,286,0.0,4.0,86,0.00,,,0.00,meteohub,2013-03-11 15:42:00,
2013-03-11 08:47:00,53.4,49.1,30.28,WNW,287,2.0,4.0,85,0.00,,,0.00,meteohub,2013-03-11 15:47:00,
2013-03-11 08:52:00,53.8,48.7,30.28,WNW,286,2.0,4.0,83,0.00,,,0.00,meteohub,2013-03-11 15:52:00,
2013-03-11 08:57:00,54.0,48.6,30.28,WNW,288,2.0,4.0,82,0.00,,,0.00,meteohub,2013-03-11 15:57:00,
2013-03-11 09:07:00,54.7,49.3,30.28,WNW,296,0.0,4.0,82,0.00,,,0.00,meteohub,2013-03-11 16:07:00,
2013-03-11 09:17:00,54.7,48.9,30.28,NW,304,0.0,4.0,81,0.00,,,0.00,meteohub,2013-03-11 16:17:00,
2013-03-11 09:22:00,54.9,49.1,30.28,NW,307,1.0,4.0,81,0.00,,,0.00,meteohub,2013-03-11 16:22:00,
2013-03-11 09:27:00,54.9,49.1,30.28,NW,309,3.0,4.0,81,0.00,,,0.00,meteohub,2013-03-11 16:27:00,
2013-03-11 09:32:00,54.9,48.7,30.28,NW,312,0.0,4.0,80,0.00,,,0.00,meteohub,2013-03-11 16:32:00,
2013-03-11 09:37:00,55.0,48.9,30.28,NNW,338,1.0,4.0,80,0.00,,,0.00,meteohub,2013-03-11 16:37:00,
2013-03-11 09:42:00,55.0,48.6,30.28,NE,43,1.0,4.0,79,0.00,,,0.00,meteohub,2013-03-11 16:42:00,
2013-03-11 09:47:00,55.2,49.1,30.29,NE,42,1.0,4.0,80,0.00,,,0.00,meteohub,2013-03-11 16:47:00,
2013-03-11 09:57:00,56.5,49.3,30.28,NE,42,0.0,2.0,77,0.00,,,0.00,meteohub,2013-03-11 16:57:00,
2013-03-11 10:02:00,56.8,49.6,30.28,NE,36,3.0,3.0,77,0.00,,,0.00,meteohub,2013-03-11 17:02:00,
2013-03-11 10:07:00,57.4,49.8,30.28,NE,36,1.0,3.0,76,0.00,,,0.00,meteohub,2013-03-11 17:07:00,
2013-03-11 10:12:00,57.6,49.6,30.28,NNE,32,0.0,5.0,75,0.00,,,0.00,meteohub,2013-03-11 17:12:00,
2013-03-11 10:17:00,57.6,49.6,30.28,NNE,32,0.0,5.0,75,0.00,,,0.00,meteohub,2013-03-11 17:17:00,
2013-03-11 10:22:00,57.6,50.0,30.28,NNE,32,1.0,5.0,76,0.00,,,0.00,meteohub,2013-03-11 17:22:00,
2013-03-11 10:27:00,57.7,49.8,30.28,NNE,33,0.0,4.0,75,0.00,,,0.00,meteohub,2013-03-11 17:27:00,
2013-03-11 10:32:00,58.3,50.0,30.27,NNE,33,2.0,3.0,74,0.00,,,0.00,meteohub,2013-03-11 17:32:00,
2013-03-11 10:37:00,58.5,49.8,30.27,NE,43,2.0,3.0,73,0.00,,,0.00,meteohub,2013-03-11 17:37:00,
2013-03-11 10:47:00,58.1,49.8,30.28,NE,47,0.0,4.0,74,0.00,,,0.00,meteohub,2013-03-11 17:47:00,
2013-03-11 10:52:00,58.6,50.0,30.28,NE,38,0.0,4.0,73,0.00,,,0.00,meteohub,2013-03-11 17:52:00,
2013-03-11 10:57:00,59.0,49.6,30.28,NE,38,1.0,4.0,71,0.00,,,0.00,meteohub,2013-03-11 17:57:00,
2013-03-11 11:02:00,59.4,50.0,30.28,NE,38,0.0,4.0,71,0.00,,,0.00,meteohub,2013-03-11 18:02:00,
2013-03-11 11:07:00,59.5,49.8,30.27,NE,53,2.0,3.0,70,0.00,,,0.00,meteohub,2013-03-11 18:07:00,
2013-03-11 11:17:00,61.0,50.4,30.27,NE,50,2.0,3.0,68,0.00,,,0.00,meteohub,2013-03-11 18:17:00,
2013-03-11 11:22:00,61.9,50.4,30.27,NE,49,1.0,3.0,66,0.00,,,0.00,meteohub,2013-03-11 18:22:00,
2013-03-11 11:32:00,63.9,50.5,30.27,NE,39,0.0,4.0,62,0.00,,,0.00,meteohub,2013-03-11 18:32:00,
2013-03-11 11:37:00,64.8,51.1,30.27,NE,36,0.0,4.0,61,0.00,,,0.00,meteohub,2013-03-11 18:37:00,
2013-03-11 11:42:00,65.5,50.7,30.27,NE,35,1.0,4.0,59,0.00,,,0.00,meteohub,2013-03-11 18:42:00,
2013-03-11 11:47:00,65.5,49.8,30.27,North,9,2.0,4.0,57,0.00,,,0.00,meteohub,2013-03-11 18:47:00,
2013-03-11 11:52:00,65.7,49.5,30.26,North,9,0.0,5.0,56,0.00,,,0.00,meteohub,2013-03-11 18:52:00,
2013-03-11 12:02:00,65.3,48.2,30.26,NNE,12,1.0,6.0,54,0.00,,,0.00,meteohub,2013-03-11 19:02:00,
2013-03-11 12:07:00,65.7,48.0,30.26,North,350,1.0,6.0,53,0.00,,,0.00,meteohub,2013-03-11 19:07:00,
2013-03-11 12:17:00,64.9,47.5,30.26,WNW,296,2.0,7.0,53,0.00,,,0.00,meteohub,2013-03-11 19:17:00,
2013-03-11 12:22:00,65.1,48.0,30.25,NW,309,0.0,7.0,54,0.00,,,0.00,meteohub,2013-03-11 19:22:00,
2013-03-11 12:27:00,65.3,47.7,30.25,NNW,327,4.0,5.0,53,0.00,,,0.00,meteohub,2013-03-11 19:27:00,
2013-03-11 12:32:00,65.5,48.4,30.25,NNW,341,0.0,5.0,54,0.00,,,0.00,meteohub,2013-03-11 19:32:00,
2013-03-11 12:37:00,66.6,47.8,30.25,NW,322,0.0,5.0,51,0.00,,,0.00,meteohub,2013-03-11 19:37:00,
2013-03-11 12:42:00,66.7,47.5,30.25,NW,321,0.0,5.0,50,0.00,,,0.00,meteohub,2013-03-11 19:42:00,
2013-03-11 12:47:00,67.6,48.4,30.24,NW,321,1.0,3.0,50,0.00,,,0.00,meteohub,2013-03-11 19:47:00,
2013-03-11 12:52:00,68.7,48.2,30.24,NW,321,1.0,2.0,48,0.00,,,0.00,meteohub,2013-03-11 19:52:00,
2013-03-11 12:57:00,69.4,48.4,30.24,North,-999,-999.0,1.0,47,0.00,,,0.00,meteohub,2013-03-11 19:57:00,
2013-03-11 13:02:00,70.0,48.2,30.24,NW,323,0.0,1.0,46,0.00,,,0.00,meteohub,2013-03-11 20:02:00,
2013-03-11 13:07:00,70.3,48.6,30.23,NW,323,0.0,1.0,46,0.00,,,0.00,meteohub,2013-03-11 20:07:00,
2013-03-11 13:12:00,70.7,48.4,30.23,NW,323,0.0,1.0,45,0.00,,,0.00,meteohub,2013-03-11 20:12:00,
2013-03-11 13:17:00,68.4,46.2,30.23,NW,306,2.0,3.0,45,0.00,,,0.00,meteohub,2013-03-11 20:17:00,
2013-03-11 13:22:00,68.2,46.0,30.23,SSW,213,2.0,3.0,45,0.00,,,0.00,meteohub,2013-03-11 20:22:00,
2013-03-11 13:27:00,68.0,47.7,30.22,SW,233,3.0,4.0,48,0.00,,,0.00,meteohub,2013-03-11 20:27:00,
2013-03-11 13:32:00,67.8,48.0,30.22,ENE,69,1.0,4.0,49,0.00,,,0.00,meteohub,2013-03-11 20:32:00,
2013-03-11 13:37:00,69.1,48.6,30.22,South,186,2.0,4.0,48,0.00,,,0.00,meteohub,2013-03-11 20:37:00,
2013-03-11 13:42:00,70.0,48.2,30.22,NNW,344,1.0,5.0,46,0.00,,,0.00,meteohub,2013-03-11 20:42:00,
2013-03-11 13:47:00,70.2,47.8,30.22,South,176,4.0,5.0,45,0.00,,,0.00,meteohub,2013-03-11 20:47:00,
2013-03-11 13:57:00,70.3,48.0,30.21,SE,127,2.0,4.0,45,0.00,,,0.00,meteohub,2013-03-11 20:57:00,
2013-03-11 14:07:00,69.6,47.8,30.21,WNW,295,5.0,7.0,46,0.00,,,0.00,meteohub,2013-03-11 21:07:00,
2013-03-11 14:12:00,68.0,48.2,30.22,WNW,282,5.0,7.0,49,0.00,,,0.00,meteohub,2013-03-11 21:12:00,
2013-03-11 14:17:00,67.3,47.5,30.22,WNW,287,5.0,12.0,49,0.00,,,0.00,meteohub,2013-03-11 21:17:00,
2013-03-11 14:22:00,67.3,47.5,30.22,WNW,287,5.0,12.0,49,0.00,,,0.00,meteohub,2013-03-11 21:22:00,
2013-03-11 14:32:00,64.2,45.7,30.21,West,263,7.0,7.0,51,0.00,,,0.00,meteohub,2013-03-11 21:32:00,
2013-03-11 14:37:00,64.2,44.6,30.21,WNW,292,10.0,10.0,49,0.00,,,0.00,meteohub,2013-03-11 21:37:00,
2013-03-11 14:47:00,63.9,43.2,30.20,West,281,4.0,10.0,47,0.00,,,0.00,meteohub,2013-03-11 21:47:00,
2013-03-11 14:52:00,64.0,43.9,30.20,WNW,286,4.0,10.0,48,0.00,,,0.00,meteohub,2013-03-11 21:52:00,
2013-03-11 14:57:00,64.0,43.9,30.20,SE,130,7.0,11.0,48,0.00,,,0.00,meteohub,2013-03-11 21:57:00,
2013-03-11 15:02:00,64.4,43.7,30.20,West,265,6.0,15.0,47,0.00,,,0.00,meteohub,2013-03-11 22:02:00,
2013-03-11 15:07:00,64.6,43.9,30.20,WNW,286,8.0,15.0,47,0.00,,,0.00,meteohub,2013-03-11 22:07:00,
2013-03-11 15:12:00,64.4,44.8,30.20,WNW,301,11.0,15.0,49,0.00,,,0.00,meteohub,2013-03-11 22:12:00,
2013-03-11 15:22:00,64.4,44.8,30.20,North,-999,-999.0,11.0,49,0.00,,,0.00,meteohub,2013-03-11 22:22:00,